Time,TemperatureF,DewpointF,PressureIn,WindDirection,WindDirectionDegrees,WindSpeedMPH,WindSpeedGustMPH,Humidity,HourlyPrecipIn,Conditions,Clouds,dailyrainin,SoftwareType,DateUTC
2013-04-09 00:03:00,60.0,48.0,30.10,West,268,6.0,16.0,64,0.00,,,0.00,,2013-04-09 04:03:00,
2013-04-09 00:13:00,60.0,48.0,30.10,West,268,6.0,16.0,64,0.00,,,0.00,,2013-04-09 04:13:00,
2013-04-09 00:23:00,60.0,48.0,30.10,SW,235,5.0,23.0,64,0.00,,,0.00,,2013-04-09 04:23:00,
2013-04-09 00:32:00,60.0,48.0,30.10,SW,235,5.0,23.0,64,0.00,,,0.00,,2013-04-09 04:32:00,
2013-04-09 00:42:00,60.0,48.0,30.10,SW,235,5.0,23.0,64,0.00,,,0.00,,2013-04-09 04:42:00,
2013-04-09 00:53:00,60.0,48.0,30.10,SW,235,5.0,23.0,64,0.00,,,0.00,,2013-04-09 04:53:00,
2013-04-09 01:02:00,59.0,47.0,30.11,West,281,6.0,15.0,65,0.00,,,0.00,,2013-04-09 05:02:00,
2013-04-09 01:12:00,59.0,47.0,30.12,WSW,256,8.0,18.0,65,0.00,,,0.00,,2013-04-09 05:12:00,
2013-04-09 01:22:00,59.0,47.0,30.12,WSW,256,8.0,18.0,65,0.00,,,0.00,,2013-04-09 05:22:00,
2013-04-09 01:32:00,59.0,48.0,30.12,WSW,253,6.0,15.0,66,0.00,,,0.00,,2013-04-09 05:32:00,
2013-04-09 01:43:00,59.0,48.0,30.12,WSW,245,4.0,11.0,66,0.00,,,0.00,,2013-04-09 05:43:00,
2013-04-09 01:52:00,59.0,48.0,30.12,WSW,245,4.0,11.0,66,0.00,,,0.00,,2013-04-09 05:52:00,
2013-04-09 02:02:00,59.0,48.0,30.12,WSW,247,4.0,13.0,66,0.00,,,0.00,,2013-04-09 06:02:00,
2013-04-09 02:12:00,58.0,47.0,30.12,WNW,288,4.0,13.0,66,0.00,,,0.00,,2013-04-09 06:12:00,
2013-04-09 02:22:00,58.0,47.0,30.12,WNW,288,4.0,13.0,66,0.00,,,0.00,,2013-04-09 06:22:00,
2013-04-09 02:32:00,59.0,47.0,30.12,WSW,244,5.0,12.0,65,0.00,,,0.00,,2013-04-09 06:32:00,
2013-04-09 02:42:00,59.0,47.0,30.12,WSW,244,5.0,12.0,65,0.00,,,0.00,,2013-04-09 06:42:00,
2013-04-09 02:52:00,58.0,47.0,30.11,West,269,4.0,12.0,66,0.00,,,0.00,,2013-04-09 06:52:00,
2013-04-09 03:02:00,58.0,47.0,30.11,West,266,5.0,12.0,66,0.00,,,0.00,,2013-04-09 07:02:00,
2013-04-09 03:13:00,58.0,47.0,30.11,West,266,5.0,12.0,66,0.00,,,0.00,,2013-04-09 07:13:00,
2013-04-09 03:22:00,58.0,47.0,30.11,West,281,6.0,12.0,66,0.00,,,0.00,,2013-04-09 07:22:00,
2013-04-09 03:32:00,58.0,47.0,30.11,West,276,6.0,14.0,66,0.00,,,0.00,,2013-04-09 07:32:00,
2013-04-09 03:42:00,58.0,47.0,30.11,West,276,6.0,14.0,66,0.00,,,0.00,,2013-04-09 07:42:00,
2013-04-09 03:53:00,58.0,47.0,30.11,West,276,6.0,14.0,66,0.00,,,0.00,,2013-04-09 07:53:00,
2013-04-09 04:03:00,59.0,47.0,30.11,West,273,7.0,16.0,65,0.00,,,0.00,,2013-04-09 08:03:00,
2013-04-09 04:12:00,59.0,47.0,30.11,West,273,7.0,16.0,65,0.00,,,0.00,,2013-04-09 08:12:00,
2013-04-09 04:22:00,59.0,47.0,30.11,WNW,282,8.0,16.0,64,0.00,,,0.00,,2013-04-09 08:22:00,
2013-04-09 04:32:00,59.0,47.0,30.11,West,273,7.0,18.0,64,0.00,,,0.00,,2013-04-09 08:32:00,
2013-04-09 04:42:00,59.0,47.0,30.11,West,273,7.0,18.0,64,0.00,,,0.00,,2013-04-09 08:42:00,
2013-04-09 04:52:00,59.0,47.0,30.12,West,275,7.0,15.0,64,0.00,,,0.00,,2013-04-09 08:52:00,
2013-04-09 05:02:00,59.0,47.0,30.12,West,271,8.0,18.0,64,0.00,,,0.00,,2013-04-09 09:02:00,
2013-04-09 05:12:00,59.0,47.0,30.12,West,272,7.0,16.0,64,0.00,,,0.00,,2013-04-09 09:12:00,
2013-04-09 05:22:00,59.0,47.0,30.12,West,272,7.0,16.0,64,0.00,,,0.00,,2013-04-09 09:22:00,
2013-04-09 05:33:00,59.0,47.0,30.12,West,276,7.0,18.0,64,0.00,,,0.00,,2013-04-09 09:33:00,
2013-04-09 05:43:00,59.0,47.0,30.12,West,276,7.0,18.0,64,0.00,,,0.00,,2013-04-09 09:43:00,
2013-04-09 05:53:00,59.0,47.0,30.12,West,279,11.0,20.0,64,0.00,,,0.00,,2013-04-09 09:53:00,
2013-04-09 06:03:00,59.0,47.0,30.13,WNW,297,8.0,19.0,64,0.00,,,0.00,,2013-04-09 10:03:00,
2013-04-09 06:13:00,59.0,47.0,30.13,WNW,297,8.0,19.0,64,0.00,,,0.00,,2013-04-09 10:13:00,
2013-04-09 06:23:00,60.0,47.0,30.13,West,272,8.0,21.0,63,0.00,,,0.00,,2013-04-09 10:23:00,
2013-04-09 06:33:00,60.0,47.0,30.14,WNW,286,7.0,18.0,63,0.00,,,0.00,,2013-04-09 10:33:00,
2013-04-09 06:43:00,60.0,47.0,30.14,WNW,286,7.0,18.0,63,0.00,,,0.00,,2013-04-09 10:43:00,
2013-04-09 06:53:00,60.0,47.0,30.14,West,279,7.0,17.0,63,0.00,,,0.00,,2013-04-09 10:53:00,
2013-04-09 07:02:00,60.0,47.0,30.14,West,268,7.0,22.0,63,0.00,,,0.00,,2013-04-09 11:02:00,
2013-04-09 07:12:00,60.0,47.0,30.14,West,268,7.0,22.0,63,0.00,,,0.00,,2013-04-09 11:12:00,
2013-04-09 07:22:00,59.0,47.0,30.15,WSW,242,2.0,14.0,64,0.00,,,0.00,,2013-04-09 11:22:00,
2013-04-09 07:32:00,59.0,47.0,30.15,NW,307,5.0,16.0,64,0.00,,,0.00,,2013-04-09 11:32:00,
2013-04-09 07:42:00,59.0,47.0,30.15,NW,307,5.0,16.0,64,0.00,,,0.00,,2013-04-09 11:42:00,
2013-04-09 07:52:00,59.0,47.0,30.16,WSW,256,6.0,15.0,64,0.00,,,0.00,,2013-04-09 11:52:00,
2013-04-09 08:02:00,59.0,47.0,30.17,WSW,249,6.0,15.0,64,0.00,,,0.00,,2013-04-09 12:02:00,
2013-04-09 08:12:00,59.0,47.0,30.17,WSW,249,6.0,15.0,64,0.00,,,0.00,,2013-04-09 12:12:00,
2013-04-09 08:22:00,59.0,47.0,30.17,West,269,3.0,12.0,64,0.00,,,0.00,,2013-04-09 12:22:00,
2013-04-09 08:32:00,59.0,47.0,30.18,West,276,5.0,11.0,65,0.00,,,0.00,,2013-04-09 12:32:00,
2013-04-09 08:42:00,59.0,47.0,30.18,West,276,5.0,11.0,65,0.00,,,0.00,,2013-04-09 12:42:00,
2013-04-09 08:53:00,60.0,48.0,30.18,NNW,337,3.0,9.0,64,0.00,,,0.00,,2013-04-09 12:53:00,
2013-04-09 09:03:00,60.0,48.0,30.18,WSW,256,4.0,13.0,64,0.00,,,0.00,,2013-04-09 13:03:00,
2013-04-09 09:12:00,60.0,48.0,30.18,WSW,256,4.0,13.0,64,0.00,,,0.00,,2013-04-09 13:12:00,
2013-04-09 09:23:00,60.0,47.0,30.19,WSW,257,6.0,13.0,63,0.00,,,0.00,,2013-04-09 13:23:00,
2013-04-09 09:33:00,61.0,48.0,30.18,North,360,1.0,10.0,63,0.00,,,0.00,,2013-04-09 13:33:00,
2013-04-09 09:43:00,61.0,48.0,30.18,North,360,1.0,10.0,63,0.00,,,0.00,,2013-04-09 13:43:00,
2013-04-09 09:53:00,62.0,48.0,30.19,NW,307,3.0,14.0,61,0.00,,,0.00,,2013-04-09 13:53:00,
2013-04-09 10:03:00,62.0,48.0,30.19,SW,229,2.0,9.0,60,0.00,,,0.00,,2013-04-09 14:03:00,
2013-04-09 10:12:00,62.0,48.0,30.19,SW,229,2.0,9.0,60,0.00,,,0.00,,2013-04-09 14:12:00,
2013-04-09 10:22:00,62.0,48.0,30.19,SW,229,2.0,9.0,60,0.00,,,0.00,,2013-04-09 14:22:00,
2013-04-09 10:32:00,63.0,48.0,30.19,WNW,296,3.0,14.0,59,0.00,,,0.00,,2013-04-09 14:32:00,
2013-04-09 10:42:00,63.0,48.0,30.19,WNW,296,3.0,14.0,59,0.00,,,0.00,,2013-04-09 14:42:00,
2013-04-09 10:52:00,64.0,49.0,30.19,West,260,4.0,11.0,58,0.00,,,0.00,,2013-04-09 14:52:00,
2013-04-09 11:02:00,64.0,49.0,30.20,West,269,5.0,10.0,58,0.00,,,0.00,,2013-04-09 15:02:00,
2013-04-09 11:13:00,64.0,49.0,30.20,West,269,5.0,10.0,58,0.00,,,0.00,,2013-04-09 15:13:00,
2013-04-09 11:23:00,65.0,49.0,30.20,SW,235,3.0,11.0,57,0.00,,,0.00,,2013-04-09 15:23:00,
2013-04-09 11:33:00,65.0,49.0,30.20,West,274,5.0,11.0,56,0.00,,,0.00,,2013-04-09 15:33:00,
2013-04-09 11:43:00,65.0,49.0,30.20,West,274,5.0,11.0,56,0.00,,,0.00,,2013-04-09 15:43:00,
2013-04-09 11:54:00,65.0,49.0,30.20,WNW,283,4.0,11.0,56,0.00,,,0.00,,2013-04-09 15:54:00,
2013-04-09 12:03:00,66.0,49.0,30.20,West,271,7.0,12.0,54,0.00,,,0.00,,2013-04-09 16:03:00,
2013-04-09 12:13:00,66.0,49.0,30.20,West,271,7.0,12.0,54,0.00,,,0.00,,2013-04-09 16:13:00,
2013-04-09 12:23:00,67.0,50.0,30.20,SSW,202,4.0,10.0,55,0.00,,,0.00,,2013-04-09 16:23:00,
2013-04-09 12:33:00,68.0,50.0,30.19,SSW,202,4.0,10.0,53,0.00,,,0.00,,2013-04-09 16:33:00,
2013-04-09 12:42:00,68.0,50.0,30.19,SSW,202,4.0,10.0,53,0.00,,,0.00,,2013-04-09 16:42:00,
2013-04-09 12:54:00,69.0,50.0,30.19,WSW,258,2.0,12.0,51,0.00,,,0.00,,2013-04-09 16:54:00,
2013-04-09 13:02:00,69.0,50.0,30.19,WSW,241,6.0,12.0,50,0.00,,,0.00,,2013-04-09 17:02:00,
2013-04-09 13:13:00,69.0,50.0,30.19,WSW,241,6.0,12.0,50,0.00,,,0.00,,2013-04-09 17:13:00,
2013-04-09 13:23:00,70.0,49.0,30.19,SW,218,6.0,15.0,48,0.00,,,0.00,,2013-04-09 17:23:00,
2013-04-09 13:32:00,69.0,48.0,30.18,NNW,335,4.0,10.0,47,0.00,,,0.00,,2013-04-09 17:32:00,
2013-04-09 13:42:00,69.0,48.0,30.18,NNW,335,4.0,10.0,47,0.00,,,0.00,,2013-04-09 17:42:00,
2013-04-09 13:54:00,71.0,50.0,30.18,SW,232,4.0,10.0,48,0.00,,,0.00,,2013-04-09 17:54:00,
2013-04-09 14:02:00,72.0,50.0,30.17,WNW,294,2.0,10.0,46,0.00,,,0.00,,2013-04-09 18:02:00,
2013-04-09 14:13:00,72.0,50.0,30.17,WNW,294,2.0,10.0,46,0.00,,,0.00,,2013-04-09 18:13:00,
2013-04-09 14:23:00,72.0,50.0,30.17,WNW,294,2.0,10.0,46,0.00,,,0.00,,2013-04-09 18:23:00,
2013-04-09 14:33:00,72.0,49.0,30.16,South,187,2.0,13.0,44,0.00,,,0.00,,2013-04-09 18:33:00,
2013-04-09 14:43:00,72.0,49.0,30.16,South,187,2.0,13.0,44,0.00,,,0.00,,2013-04-09 18:43:00,
2013-04-09 14:53:00,74.0,49.0,30.15,West,266,5.0,9.0,42,0.00,,,0.00,,2013-04-09 18:53:00,
2013-04-09 15:03:00,74.0,49.0,30.15,West,266,5.0,9.0,42,0.00,,,0.00,,2013-04-09 19:03:00,
2013-04-09 15:12:00,74.0,49.0,30.15,West,266,5.0,9.0,42,0.00,,,0.00,,2013-04-09 19:12:00,
2013-04-09 15:22:00,74.0,49.0,30.15,West,266,5.0,9.0,42,0.00,,,0.00,,2013-04-09 19:22:00,
2013-04-09 15:32:00,74.0,50.0,30.15,West,263,8.0,16.0,43,0.00,,,0.00,,2013-04-09 19:32:00,
2013-04-09 15:42:00,74.0,50.0,30.15,West,263,8.0,16.0,43,0.00,,,0.00,,2013-04-09 19:42:00,
2013-04-09 15:52:00,76.0,50.0,30.12,WNW,291,4.0,11.0,40,0.00,,,0.00,,2013-04-09 19:52:00,
2013-04-09 16:03:00,75.0,48.0,30.12,West,262,3.0,9.0,39,0.00,,,0.00,,2013-04-09 20:03:00,
2013-04-09 16:12:00,76.0,49.0,30.12,West,269,4.0,10.0,39,0.00,,,0.00,,2013-04-09 20:12:00,
2013-04-09 16:22:00,76.0,49.0,30.12,West,269,4.0,10.0,39,0.00,,,0.00,,2013-04-09 20:22:00,
2013-04-09 16:34:00,76.0,49.0,30.12,West,269,4.0,10.0,39,0.00,,,0.00,,2013-04-09 20:34:00,
2013-04-09 16:43:00,76.0,49.0,30.12,West,269,4.0,10.0,39,0.00,,,0.00,,2013-04-09 20:43:00,
2013-04-09 16:52:00,77.0,49.0,30.12,West,259,4.0,14.0,37,0.00,,,0.00,,2013-04-09 20:52:00,
2013-04-09 17:03:00,75.0,46.0,30.11,SSW,205,7.0,17.0,36,0.00,,,0.00,,2013-04-09 21:03:00,
2013-04-09 17:14:00,75.0,46.0,30.11,SSW,205,7.0,17.0,36,0.00,,,0.00,,2013-04-09 21:14:00,
2013-04-09 17:22:00,75.0,46.0,30.11,SSW,205,7.0,17.0,36,0.00,,,0.00,,2013-04-09 21:22:00,
2013-04-09 17:33:00,74.0,47.0,30.11,South,183,3.0,13.0,39,0.00,,,0.00,,2013-04-09 21:33:00,
2013-04-09 17:42:00,74.0,47.0,30.11,South,183,3.0,13.0,39,0.00,,,0.00,,2013-04-09 21:42:00,
2013-04-09 17:52:00,74.0,49.0,30.11,WSW,257,5.0,12.0,42,0.00,,,0.00,,2013-04-09 21:52:00,
2013-04-09 18:03:00,72.0,49.0,30.11,WSW,245,1.0,7.0,44,0.00,,,0.00,,2013-04-09 22:03:00,
2013-04-09 18:13:00,73.0,50.0,30.11,West,267,3.0,9.0,44,0.00,,,0.00,,2013-04-09 22:13:00,
2013-04-09 18:23:00,73.0,50.0,30.11,West,267,3.0,9.0,44,0.00,,,0.00,,2013-04-09 22:23:00,
2013-04-09 18:33:00,73.0,50.0,30.11,West,267,3.0,9.0,44,0.00,,,0.00,,2013-04-09 22:33:00,
2013-04-09 18:42:00,73.0,50.0,30.11,West,267,3.0,9.0,44,0.00,,,0.00,,2013-04-09 22:42:00,
2013-04-09 18:53:00,74.0,49.0,30.11,WNW,283,3.0,9.0,42,0.00,,,0.00,,2013-04-09 22:53:00,
2013-04-09 19:03:00,74.0,49.0,30.11,WSW,251,3.0,12.0,42,0.00,,,0.00,,2013-04-09 23:03:00,
2013-04-09 19:13:00,73.0,50.0,30.10,West,263,4.0,9.0,44,0.00,,,0.00,,2013-04-09 23:13:00,
2013-04-09 19:23:00,73.0,50.0,30.10,West,263,4.0,9.0,44,0.00,,,0.00,,2013-04-09 23:23:00,
2013-04-09 19:32:00,71.0,49.0,30.10,WSW,249,5.0,13.0,46,0.00,,,0.00,,2013-04-09 23:32:00,
2013-04-09 19:42:00,71.0,49.0,30.10,WSW,249,5.0,13.0,46,0.00,,,0.00,,2013-04-09 23:42:00,
2013-04-09 19:52:00,70.0,50.0,30.10,WSW,251,3.0,9.0,49,0.00,,,0.00,,2013-04-09 23:52:00,
2013-04-09 20:03:00,70.0,50.0,30.10,WSW,251,3.0,9.0,49,0.00,,,0.00,,2013-04-10 00:03:00,
2013-04-09 20:12:00,70.0,50.0,30.10,WSW,251,3.0,9.0,49,0.00,,,0.00,,2013-04-10 00:12:00,
2013-04-09 20:23:00,69.0,49.0,30.11,WSW,244,6.0,14.0,49,0.00,,,0.00,,2013-04-10 00:23:00,
2013-04-09 20:33:00,68.0,49.0,30.11,SW,229,5.0,15.0,50,0.00,,,0.00,,2013-04-10 00:33:00,
2013-04-09 20:42:00,68.0,49.0,30.11,SW,229,5.0,15.0,50,0.00,,,0.00,,2013-04-10 00:42:00,
2013-04-09 20:52:00,68.0,50.0,30.11,WSW,245,5.0,12.0,52,0.00,,,0.00,,2013-04-10 00:52:00,
2013-04-09 21:02:00,67.0,49.0,30.12,SSW,204,5.0,12.0,53,0.00,,,0.00,,2013-04-10 01:02:00,
2013-04-09 21:12:00,67.0,49.0,30.12,SSW,211,7.0,12.0,53,0.00,,,0.00,,2013-04-10 01:12:00,
2013-04-09 21:23:00,67.0,49.0,30.12,SSW,211,7.0,12.0,53,0.00,,,0.00,,2013-04-10 01:23:00,
2013-04-09 21:32:00,66.0,49.0,30.12,WSW,240,4.0,14.0,54,0.00,,,0.00,,2013-04-10 01:32:00,
2013-04-09 21:42:00,66.0,49.0,30.12,WSW,240,4.0,14.0,54,0.00,,,0.00,,2013-04-10 01:42:00,
2013-04-09 21:52:00,66.0,50.0,30.13,WSW,252,6.0,14.0,56,0.00,,,0.00,,2013-04-10 01:52:00,
2013-04-09 22:02:00,66.0,51.0,30.13,SW,225,6.0,17.0,58,0.00,,,0.00,,2013-04-10 02:02:00,
2013-04-09 22:13:00,66.0,51.0,30.13,SW,225,6.0,17.0,58,0.00,,,0.00,,2013-04-10 02:13:00,
2013-04-09 22:22:00,66.0,51.0,30.13,WSW,257,7.0,16.0,59,0.00,,,0.00,,2013-04-10 02:22:00,
2013-04-09 22:33:00,66.0,52.0,30.12,SW,232,5.0,18.0,60,0.00,,,0.00,,2013-04-10 02:33:00,
2013-04-09 22:43:00,66.0,52.0,30.12,SW,232,5.0,18.0,60,0.00,,,0.00,,2013-04-10 02:43:00,
2013-04-09 22:52:00,65.0,51.0,30.12,WSW,240,8.0,15.0,61,0.00,,,0.00,,2013-04-10 02:52:00,
2013-04-09 23:03:00,65.0,52.0,30.12,SW,231,6.0,14.0,62,0.00,,,0.00,,2013-04-10 03:03:00,
2013-04-09 23:12:00,65.0,52.0,30.12,SW,231,6.0,14.0,62,0.00,,,0.00,,2013-04-10 03:12:00,
2013-04-09 23:22:00,65.0,52.0,30.11,WSW,245,6.0,17.0,62,0.00,,,0.00,,2013-04-10 03:22:00,
2013-04-09 23:33:00,65.0,52.0,30.11,WSW,255,5.0,19.0,63,0.00,,,0.00,,2013-04-10 03:33:00,
2013-04-09 23:43:00,65.0,52.0,30.11,WSW,255,5.0,19.0,63,0.00,,,0.00,,2013-04-10 03:43:00,
2013-04-09 23:52:00,65.0,52.0,30.11,SW,233,5.0,13.0,63,0.00,,,0.00,,2013-04-10 03:52:00,